Regional Weather Roundup
Issued by NWS

Home | Current Version | Previous Version | Text Only | Print | Product List | Glossary On
Versions: 1 2 3 4 5 6 7 8 9 10 11 12 13 14 15 16 17 18 19 20 21 22 23 24 25 26 27 28 29 30 31 32 33 34 35 36 37 38 39 40 41 42 43 44 45 46 47 48 49 50
774
ASUS45 KPSR 071410
RWRAZ

ARIZONA HOURLY REGIONAL WEATHER ROUNDUP
NATIONAL WEATHER SERVICE PHOENIX AZ
700 AM MST SUN FEB 07 2016

NOTE: FAIR INDICATES FEW OR NO CLOUDS BELOW 12,000 FEET WITH NO
SIGNIFICANT WEATHER AND/OR OBSTRUCTIONS TO VISIBILITY.

AZZ001>003-036-071500-
NORTHWEST ARIZONA

CITY           SKY/WX    TMP DP  RH WIND       PRES   REMARKS
BULLHEAD CITY  CLEAR     55  27  33 N26G33    30.26R
KINGMAN        CLEAR     32  23  69 E3        30.32S
$$

AZZ004>008-015-016-018-071500-
NORTH CENTRAL ARIZONA

CITY           SKY/WX    TMP DP  RH WIND       PRES   REMARKS
GRAND CANYON   CLEAR     17  10  74 NE3       30.41R
WILLIAMS       CLEAR     28   7  40 CALM      30.42R
PRESCOTT       CLEAR     26  19  74 S3        30.33R
FLAGSTAFF      CLEAR     11   7  84 CALM      30.39R
PAYSON         CLEAR     41   9  26 E6        30.31S
PAGE           CLEAR     27  22  81 CALM      30.47R
$$

AZZ009>014-017-071500-
NORTHEAST ARIZONA

CITY           SKY/WX    TMP DP  RH WIND       PRES   REMARKS
WINSLOW        MOCLDY    16  12  84 SW3       30.44R
SAINT JOHNS    PTCLDY    17  12  80 CALM      30.38R
WINDOW ROCK    CLEAR     16   0  49 CALM      30.41R
SHOW LOW       PTCLDY    19  12  73 CALM      30.37S
$$

AZZ023-071500-
GREATER PHOENIX AREA

CITY           SKY/WX    TMP DP  RH WIND       PRES   REMARKS
PHOENIX        CLEAR     52  20  28 CALM      30.16F
BUCKEYE        CLEAR     39  23  52 N7        30.21R WCI  34
GLENDALE       PTCLDY    45  27  49 N3        30.19
LUKE AFB       CLEAR     44  24  45 NE3       30.17S
DEER VALLEY    CLEAR     49  18  29 NE7       30.17F
SCOTTSDALE     CLEAR     43  26  51 CALM      30.18F
MESA-FALCON    CLEAR    N/A N/A N/A N17       30.16F
MESA-GATEWAY   PTCLDY    37  27  65 SE6       30.18F WCI  33
CHANDLER       CLEAR     39  27  60 CALM      30.18F
$$

AZZ027-028-071500-
SOUTHWEST MARICOPA COUNTY AND PINAL COUNTY

CITY           SKY/WX    TMP DP  RH WIND       PRES   REMARKS
CASA GRANDE    CLEAR     37  19  48 CALM      30.19R
GILA BEND      FAIR      41  22  46 E5        30.17S
$$

AZZ503-504-507>509-071500-
SOUTHEAST ARIZONA

CITY           SKY/WX    TMP DP  RH WIND       PRES   REMARKS
TUCSON         PTCLDY    37  16  42 CALM      30.22R
DAVIS-MONTHAN  CLEAR     45  10  23 CALM      30.19R
RYAN FIELD     CLEAR    N/A N/A N/A S9        30.21R
NOGALES        PTCLDY    33  10  38 SE6       30.21R WCI  28
SIERRA VISTA   PTCLDY    33  13  43 W2        30.26R
DOUGLAS        MOCLDY    21   8  57 E6        30.27R WCI  13
SAFFORD        PTCLDY    27  14  58 N5        30.30R WCI  22
$$

AZZ020-021-025-026-031-071500-
SOUTHWEST ARIZONA

CITY           SKY/WX    TMP DP  RH WIND       PRES   REMARKS
YUMA           CLEAR     56  22  26 N6        30.18S
$$

CAZ031-033-041-043-047-048-061-071500-
SOUTHERN CALIFORNIA

CITY           SKY/WX    TMP DP  RH WIND       PRES   REMARKS
DOWNTOWN L.A.  CLEAR     53  26  35 CALM      30.12S
L.A. AIRPORT   CLEAR     52  28  39 E5        30.13R
SAN DIEGO      CLEAR     52  28  39 CALM      30.11F
BURBANK        CLEAR     46  27  47 CALM      30.12F
ONTARIO        PTCLDY    48  26  42 N6        30.14S
RIVERSIDE      CLEAR     52  24  33 E8        30.17S
PALM SPRINGS   CLEAR     60  20  21 W6        30.22F
EL CENTRO NAS  CLEAR     45  21  38 W7        30.21S
IMPERIAL       CLEAR     44  22  41 W7        30.19S
BLYTHE         CLEAR     45  24  43 CALM      30.23S
NEEDLES        CLEAR     54  26  34 N12       30.26S
$$

NVZ020-UTZ003-071500-
SOUTHERN NEVADA-UTAH

CITY           SKY/WX    TMP DP  RH WIND       PRES   REMARKS
LAS VEGAS      CLEAR     41  25  53 S5        30.32R
SALT LAKE CITY MOCLDY    24  18  77 SE7       30.54R WCI  16
$$

NMZ009-TXZ055-071500-
NEW MEXICO-WEST TEXAS

CITY           SKY/WX    TMP DP  RH WIND       PRES   REMARKS
ALBUQUERQUE    CLOUDY    34  15  46 N14       30.36R WCI  25
EL PASO        MOCLDY    28   9  44 N6        30.30R WCI  22
$$


........................KEY........................
SKY/WX - SKY CONDITION/WEATHER
TMP    - TEMPERATURE IN FAHRENHEIT
DP     - DEW POINT IN FAHRENHEIT
RH     - RELATIVE HUMIDITY IN PERCENT
WIND   - DIRECTION AND SPEED IN MILES PER HOUR (MPH)
VRB    - VARIABLE WIND DIRECTION
PRES   - MEAN SEA LEVEL PRESSURE IN INCHES OF MERCURY
         F - FALLING PRESSURE   R - RISING PRESSURE
         S - STEADY PRESSURE
VSB    - VISIBILITY IN MILES
HX     - HEAT INDEX IN FAHRENHEIT
WCI    - WIND CHILL INDEX IN FAHRENHEIT
TC     - TEMPERATURE IN CELSIUS WHICH IS ALSO KNOWN AS
         TEMPERATURE IN CENTIGRADE
AFB    - AIR FORCE BASE
         LUKE AFB IS LUKE AIR FORCE BASE
         DAVIS-MONTHAN IS DAVIS-MONTHAN AIR FORCE BASE
NAS    - NAVAL AIR STATION
         EL CENTRO NAS IS EL CENTRO NAVAL AIR STATION
N/A    - NOT AVAILABLE





USA.gov is the U.S. government's official web portal to all federal, state and local government web resources and services.